STARLINK-1944, 46796

Orbit data source: Space-Track

STARLINK-1944, 46796 is a payload satellite owned by SpaceX/Seattle (US) in LEO that was launched on Sat, 24 Oct 2020 UTC via an FALCON 9 launch vehicle from the Air Force Eastern Test Range (AFETR). Payload-class satellites include a variety of spacecraft equipped with specific instruments for various scientific and technological missions. These include communications satellites like Starlink; space stations such as the ISS; scientific satellites like the Hubble; Earth observation satellites from companies like Planet Labs, Umbra, and HawkEye 360; GPS; miniature CubeSats for education and research; and military/defense satellites.

Loading next visibility...
Identifier
46796, 2020-074BK
Orbit
LEO
Country
Flag of USUS
Related business
Manufacturer
SpaceX/Seattle
Mission
Operational Commercial Communications
Bus & Motor
STARLINK, Unknown motor
Mass
260 kg wet, ~248 kg dry
Launch date (UTC)
2020-10-24 (5 years ago)
Launch vehicle
FALCON 9
Launch site
Air Force Eastern Test Range (AFETR)
Object type
Payload
Rocket body
Debris
Shape & HBR
Box + 1 Pan, 4.4 m
Radar Cross Section
13.562 m², Large (>1 m²)

Expand to show TLE details & history
Last TLE update: 1 day ago

TLE from 1 day ago
0 STARLINK-1944
1 46796U 20074BK  25260.59619400 -.00001657  00000-0 -92437-4 0  9994
2 46796  53.0554   8.6651 0000843  79.0417 281.0667 15.06383101270721
Epoch: 2025-09-17T14:18Z
TLE epoch observation values (Epoch: 2025-09-17T14:18:31.161Z)
Latitude
-0.00001°
Longitude
157.26538°
Altitude
548.031 km
Speed
7.589 km/s
True Right ascension
00h 34m 39s
True Declination
0° 00' 00"
Sunlit
Object was in full shadow at epoch
Visualization orbit readout
Latitude
Unknown
Longitude
Unknown
Altitude
Unknown
Speed
Unknown
Apparent Right ascension
Unknown
Apparent Declination
Unknown
Sunlit
N/A
Visualization observer readout
Local Sidereal Time
11:35:09
Azimuth
Unknown
Elevation
Unknown
Doppler factor
Unknown
Orbital elements
Apogee altitude
548.118 km
Perigee altitude
546.95 km
Semi-major axis
6,925.671 km
Eccentricity
0.00008
Inclination
53.0554°
RAAN
8.6651°
Arg. of periapsis
79.0417°
True anomaly
281.05722°
Mean anomaly
281.0667°
Eccentric anomaly
281.06196°
Mean motion
3.76574 °/min
Orbital period
95.6 mins
BSTAR
-0.000092437
Loading maneuver chart data...
Computing Atmospheric mass density...

Documentation

Showing up to 5 results
|